Jerome, ID

10:13 PM MDT on October 23, 2017 (GMT -0600)
Jerome County

Weather History for KJER - April, 2013

Change the Weather History Date:

Friday, April 5, 2013

  Actual Average Record
Temperature  
Mean Temperature 51 °F 45 °F  
Max Temperature 59 °F 56 °F 87 °F (1930)
Min Temperature 42 °F 34 °F 20 °F (1961)
Degree Days  
Heating Degree Days 14 20  
Month to date heating degree days 61 103  
Since 1 July heating degree days 5409 5759  
Cooling Degree Days 0 0  
Month to date cooling degree days 0 0  
Year to date cooling degree days 0 0  
Moisture  
Dew Point 35 °F    
Average Humidity 56    
Maximum Humidity 76    
Minimum Humidity 36    
Precipitation  
Precipitation 0.01 in 0.04 in 0.38 in (1978)
Month to date precipitation 0.11 0.19  
Year to date precipitation 1.61 3.21  
Sea Level Pressure  
Sea Level Pressure 29.93 in    
Wind  
Wind Speed 14 mph (WSW)    
Max Wind Speed 30 mph    
Max Gust Speed 38 mph    
Visibility 10 miles    
Events Rain    
T = Trace of Precipitation, MM = Missing Value Source: NWS Daily Summary

Daily Weather History Graph

Daily Weather History Graph

Search for Another Location

Airport or City:

Trip Planner

Search our weather history database for the weather conditions in past years. The results will help you decide how hot, cold, wet, or windy it might be!

Date:

Astronomy

Apr. 05, 2013 Rise Set
Actual Time 7:12 AM MDT 8:08 PM MDT
Civil Twilight 6:43 AM MDT 8:37 PM MDT
Nautical Twilight 6:09 AM MDT 9:12 PM MDT
Astronomical Twilight 5:34 AM MDT 9:47 PM MDT
Moon 4:28 AM MDT (4/5) 3:31 PM MDT (4/5)
Length of Visible Light 13h 53m
Length of Day
12h 56m
Waning Crescent, 23% of the Moon is Illuminated
Apr 5
Waning Crescent
Apr 10
New
Apr 18
First Quarter
Apr 25
Full
May 2
Last Quarter

Hourly Weather History & Observations

Time (MDT) Temp. Windchill Dew Point Humidity Pressure Visibility Wind Dir Wind Speed Gust Speed Precip Events Conditions
12:53 AM 54.0 °F - 37.0 °F 53% 29.82 in 10.0 mi South 10.4 mph - N/A   Overcast
1:53 AM 52.0 °F - 39.0 °F 61% 29.83 in 10.0 mi South 8.1 mph - 0.00 in Rain Light Rain
2:53 AM 51.1 °F - 37.0 °F 59% 29.83 in 10.0 mi SW 6.9 mph - N/A   Mostly Cloudy
3:53 AM 50.0 °F - 37.0 °F 61% 29.84 in 10.0 mi SW 9.2 mph - N/A   Scattered Clouds
4:53 AM 50.0 °F - 37.9 °F 63% 29.85 in 10.0 mi WSW 15.0 mph 24.2 mph N/A   Overcast
5:53 AM 48.0 °F - 37.9 °F 68% 29.87 in 10.0 mi WSW 11.5 mph - N/A   Partly Cloudy
6:53 AM 45.0 °F 40.1 °F 37.0 °F 74% 29.89 in 10.0 mi West 9.2 mph - N/A   Partly Cloudy
7:53 AM 45.0 °F 36.9 °F 37.9 °F 76% 29.92 in 10.0 mi WSW 20.7 mph 27.6 mph 0.00 in   Mostly Cloudy
8:50 AM 44.6 °F 35.1 °F 41.0 °F 87% 30.00 in 10.0 mi West 27.6 mph 36.8 mph 0.01 in Rain Light Rain
8:53 AM 43.0 °F 32.9 °F 39.9 °F 89% 29.98 in 10.0 mi West 27.6 mph 35.7 mph 0.01 in Rain Light Rain
9:10 AM 44.6 °F 35.9 °F 39.2 °F 81% 30.01 in 10.0 mi West 23.0 mph 29.9 mph 0.00 in   Mostly Cloudy
9:53 AM 46.0 °F 38.3 °F 39.0 °F 76% 29.99 in 10.0 mi West 20.7 mph 27.6 mph 0.00 in   Scattered Clouds
10:53 AM 50.0 °F - 37.0 °F 61% 29.98 in 10.0 mi West 21.9 mph 28.8 mph N/A   Scattered Clouds
11:53 AM 53.1 °F - 37.0 °F 55% 29.98 in 10.0 mi WSW 20.7 mph 29.9 mph N/A   Scattered Clouds
12:53 PM 53.1 °F - 35.1 °F 50% 29.97 in 10.0 mi West 18.4 mph 26.5 mph N/A   Scattered Clouds
1:53 PM 55.9 °F - 34.0 °F 44% 29.96 in 10.0 mi SW 20.7 mph 28.8 mph N/A   Scattered Clouds
2:53 PM 57.9 °F - 30.9 °F 36% 29.94 in 10.0 mi WSW 17.3 mph 27.6 mph N/A   Scattered Clouds
3:53 PM 57.9 °F - 33.1 °F 39% 29.94 in 10.0 mi West 17.3 mph 24.2 mph N/A   Scattered Clouds
4:53 PM 57.9 °F - 33.1 °F 39% 29.94 in 10.0 mi West 18.4 mph 26.5 mph N/A   Partly Cloudy
5:53 PM 57.0 °F - 30.9 °F 37% 29.93 in 10.0 mi West 17.3 mph 23.0 mph N/A   Partly Cloudy
6:53 PM 55.9 °F - 30.0 °F 37% 29.95 in 10.0 mi WSW 13.8 mph - N/A   Clear
7:53 PM 51.1 °F - 32.0 °F 48% 29.96 in 10.0 mi West 6.9 mph - N/A   Scattered Clouds
8:53 PM 48.0 °F - 30.9 °F 52% 29.96 in 10.0 mi Calm Calm - N/A   Scattered Clouds
9:53 PM 45.0 °F 43.5 °F 30.9 °F 58% 29.99 in 10.0 mi ESE 3.5 mph - N/A   Clear
10:53 PM 42.1 °F 37.7 °F 30.9 °F 65% 29.98 in 10.0 mi East 6.9 mph - N/A   Clear
11:53 PM 44.1 °F 40.1 °F 32.0 °F 63% 29.96 in 10.0 mi ESE 6.9 mph - N/A   Clear